Regional Weather Roundup
Issued by NWS

Home | Current Version | Previous Version | Text Only | Print | Product List | Glossary On
Versions: 1 2 3 4 5 6 7 8 9 10 11 12 13 14 15 16 17 18 19 20 21 22 23 24 25 26 27 28 29 30 31 32 33 34 35 36 37 38 39 40 41 42 43 44 45 46 47 48 49 50
000
ASUS45 KTFX 130210
RWRMT
MONTANA REGIONAL WEATHER ROUNDUP
NATIONAL WEATHER SERVICE GREAT FALLS MT
700 PM MST TUE DEC 12 2017

NOTE: "FAIR" INDICATES FEW OR NO CLOUDS BELOW 12000 FEET WITH NO
SIGNIFICANT WEATHER AND/OR OBSTRUCTIONS TO VISIBILITY.

MTZ001>007-043-130300-
WEST OF THE DIVIDE

CITY           SKY/WX    TMP DP  RH WIND       PRES   REMARKS
KALISPELL      CLOUDY    25  24  96 SW3       30.40F FOG
MISSOULA       FAIR      21  17  84 SE3       30.43F
BUTTE          FAIR      28  17  63 E3        30.33F
MULLAN PASS    CLOUDY    30   9  41 CALM      30.34S
ANACONDA         N/A     27  16  63 W3        30.34S
DEER LODGE       N/A     25  19  80 CALM      30.38R
EUREKA           N/A     21  18  86 MISG      30.45F
HAMILTON         N/A     19  18  93 CALM      30.40S
LIBBY            N/A     23  19  86 CALM      30.45F
$$

MTZ008-052>055-130300-
SOUTHWEST MONTANA

CITY           SKY/WX    TMP DP  RH WIND       PRES   REMARKS
BOZEMAN        CLOUDY    29  23  78 NE3       30.30F
DILLON         FAIR      37  19  48 S9        30.31R WCI  30
W YELLOWSTONE  CLOUDY    23  12  63 CALM      30.38S
ENNIS          CLOUDY    39  18  41 S12       30.35S WCI  32
$$

MTZ009-010-012-014-046-048-049-054-130300-
EAST SLOPES AND CENTRAL MONTANA

CITY           SKY/WX    TMP DP  RH WIND       PRES   REMARKS
CUT BANK       FAIR      40  11  30 W16       30.16R
GREAT FALLS    CLOUDY    48   5  17 SW14      30.18R
MALMSTROM AFB  CLOUDY    49   5  16 W12G24    30.17R
HELENA         FAIR      24  21  88 N6        30.28F WCI  17
BOWMANS CRNR   CLOUDY    43   6  21 SW16      30.19R
CHOTEAU          N/A     48   9  20 W13G22    30.19S
FAIRFIELD      MOCLDY    48   8  19 W15       30.17R
POWER          CLOUDY    48  10  21 W14       30.16R
RAYNESFORD     MOCLDY    53   5  14 W25G33    30.12S
ULM            CLOUDY    49   5  16 W18       30.17S
$$

MTZ011-013-016-021-045-047-050-051-130300-
NORTH CENTRAL MONTANA

CITY           SKY/WX    TMP DP  RH WIND       PRES   REMARKS
HAVRE          CLOUDY    46  12  25 W13       30.09R
LEWISTOWN      FAIR      44  12  27 NW8       30.12S
N BAR RANCH    FAIR      46   1  15 NW8G17    30.13S
CHINOOK          N/A     46  12  25 W13       30.06S
DENTON         MOCLDY    48   4  16 NW17G25   30.09R
GEYSER         MOCLDY    48   4  16 NW23      30.12R
GRASS RANGE    MOCLDY    51   4  14 NW28G39   30.08R
STANFORD       MOCLDY    47   4  17 NW13G22   30.11R
WINIFRED       MOCLDY    47   3  16 NW14      30.10S
$$

MTZ017>020-022>027-061-062-130300-
NORTHEAST MONTANA

CITY           SKY/WX    TMP DP  RH WIND       PRES   REMARKS
GLASGOW        FAIR      49  24  37 NW24G32   29.92R
GLENDIVE       FAIR      51  17  26 NW23G30   29.84R
JORDAN           N/A     51  15  23 NW17      30.00R
SIDNEY         FAIR      50  24  36 NW26G33   29.75R
WOLF POINT     FAIR      51  26  37 W22G32    29.85R
MALTA          MOCLDY    45  19  36 W12       30.01R
PLENTYWOOD       N/A     45  27  49 NW31G40   29.71R
$$

MTZ028>42-056>058-130300-
SOUTHCENTRAL AND SOUTHEAST MONTANA

CITY           SKY/WX    TMP DP  RH WIND       PRES   REMARKS
BAKER          FAIR      48  17  29 W18G30    29.84S
BILLINGS       MOCLDY    53   2  12 NW23G30   30.10R
LIVINGSTON     MOCLDY    48  10  21 W22       30.21F
MILES CITY     FAIR      54  11  18 NW24G33   29.96R
BIG TIMBER     MOCLDY    50   0  12 SW18G30   30.20R
FORSYTH          N/A     57   5  12 W24G36    29.99R
LAUREL           N/A     54   0  11 NW15      30.13R
$$

REGIONAL REPORTS...DAKOTAS

CITY           SKY/WX    TMP DP  RH WIND       PRES   REMARKS
WILLISTON      FAIR      48  25  40 NW23G39   29.69R
MINOT          FAIR      48  20  32 W18       29.52F
DICKINSON      FAIR      49  15  25 W24G36    29.68F
BEACH          FAIR      50  12  22 NW30G40   29.80F
CROSBY         FAIR      41  28  60 NW24G31   29.65R
TIOGA          FAIR      41  25  52 W18G25    29.64S
WATFORD CITY   FAIR      46  21  36 W12G18    29.68F
BISMARCK       FAIR      48  22  35 W14       29.62F
GRAND FORKS    CLOUDY    30  28  92 S8        29.52F WCI  22
FARGO          FAIR      35  29  78 S12       29.57F WCI  27
BUFFALO SD       N/A     52  14  22 NW25G36   29.78R
RAPID CITY     FAIR      43  10  26 S3        29.88F
$$

REGIONAL REPORTS...WYOMING/IDAHO/WASHINGTON

CITY           SKY/WX    TMP DP  RH WIND       PRES   REMARKS
GILLETTE       FAIR      50  10  20 NW21      30.02F
SHERIDAN       FAIR      51   8  17 N16       30.06R
BUFFALO WY     FAIR      54   2  12 N8G21     30.08R
CODY           FAIR      41   5  22 CALM      30.16S
YELLOWSTONE LA   N/A     16  13  88 CALM      30.39R
IDAHO FALLS    FAIR      21  16  81 CALM      30.43S
SALMON         CLOUDY    15  13  91 CALM      30.53S
BOISE          CLOUDY    23  21  92 NW8       30.54F FOG     WCI  14
SPOKANE        CLOUDY    25  24  96 N7        30.48F WCI  17
$$

REGIONAL REPORTS...ALBERTA

CITY           SKY/WX    TMP DP  RH WIND       PRES   REMARKS
EDMONTON       PTCLDY    41  27  56 W13G20    30.08R
CALGARY        CLEAR     36  14  41 VRB2      30.16R
LETHBRIDGE     PTCLDY    41  14  33 W15       30.16R
MEDICINE HAT   CLEAR     45  21  39 NW14G20   30.11R
$$

REGIONAL REPORTS...SASKATCHEWAN

CITY           SKY/WX    TMP DP  RH WIND       PRES   REMARKS
SWIFT CURRENT  PTCLDY    39  25  56 NW23G33   29.88R WCI  29
REGINA         CLOUDY    39  30  70 NW23G32   29.72R WCI  29
SASKATOON      MOCLDY    37  30  75 W13G21    29.80R WCI  29
$$



USA.gov is the U.S. government's official web portal to all federal, state and local government web resources and services.